DW6536 Weather Reports


time (UTC)temp
F
wind
direction
speed
knots
gust
knots
rain 1hr
in
rain 24hr
in
rain mn
in
humidity
%
barometer
mb
20260902003039 94 120 0.9 0.0 0.00 0.00 0.00 45 1010.0
20260902001540 95 112 0.9 0.0 0.00 0.00 0.00 44 1009.9
20260902000038 96 86 0.9 0.0 0.00 0.00 0.00 43 1009.9
20260901234537 97 212 0.9 0.0 0.00 0.00 0.00 44 1009.8
20260901233038 97 150 0.9 0.0 0.00 0.00 0.00 43 1009.8
20260901231538 96 150 0.9 0.0 0.00 0.00 0.00 44 1009.8
20260901230042 97 97 0.9 0.0 0.00 0.00 0.00 43 1009.7
20260901224535 98 67 1.7 0.0 0.00 0.00 0.00 43 1009.7
20260901223034 97 122 0.9 0.0 0.00 0.00 0.00 43 1009.8
20260901221551 97 129 1.7 0.0 0.00 0.00 0.00 44 1009.8
20260901220033 96 124 0.9 0.0 0.00 0.00 0.00 44 1009.8
20260901214532 98 55 0.9 0.0 0.00 0.00 0.00 43 1009.8
20260901213056 101 158 1.7 0.0 0.00 0.00 0.00 40 1009.9
20260901211540 101 47 1.7 0.0 0.00 0.00 0.00 40 1010.1
20260901210035 99 122 1.7 0.0 0.00 0.00 0.00 41 1010.2
20260901204526 99 20 0.9 0.0 0.00 0.00 0.00 41 1010.6
20260901203033 99 102 1.7 0.0 0.00 0.00 0.00 42 1010.8
20260901201521 98 97 0.9 0.0 0.00 0.00 0.00 44 1010.9
20260901200037 99 26 1.7 0.0 0.00 0.00 0.00 42 1011.2
20260901194519 99 156 0.9 0.0 0.00 0.00 0.00 43 1011.4
20260901193018 99 85 1.7 0.0 0.00 0.00 0.00 43 1011.6
20260901191514 98 134 0.9 0.0 0.00 0.00 0.00 44 1011.8
20260901190010 96 56 1.7 0.0 0.00 0.00 0.00 47 1012.0
20260901184507 97 95 1.7 0.0 0.00 0.00 0.00 45 1012.3
20260901183009 96 160 0.9 0.0 0.00 0.00 0.00 46 1012.5
20260901181504 96 122 1.7 0.0 0.00 0.00 0.00 48 1012.8
20260901174600 95 21 0.9 0.0 0.00 0.00 0.00 50 1013.2
20260901173058 95 6 1.7 0.0 0.00 0.00 0.00 50 1013.4
20260901171606 94 261 0.9 0.0 0.00 0.00 0.00 52 1013.6
20260901170056 94 23 1.7 0.0 0.00 0.00 0.00 53 1013.9
20260901164552 93 47 0.9 0.0 0.00 0.00 0.00 55 1013.9
20260901163050 92 108 1.7 0.0 0.00 0.00 0.00 57 1014.0
20260901161548 91 16 1.7 0.0 0.00 0.00 0.00 56 1014.2
20260901160046 91 236 0.9 0.0 0.00 0.00 0.00 60 1014.2
20260901154541 89 238 0.9 0.0 0.00 0.00 0.00 62 1014.2
20260901153038 88 223 0.9 0.0 0.00 0.00 0.00 65 1014.1
20260901151535 87 309 0.9 0.0 0.00 0.00 0.00 67 1014.1
20260901150031 85 198 0.9 0.0 0.00 0.00 0.00 71 1014.1
20260901144527 83 282 0.9 0.0 0.00 0.00 0.00 75 1014.3
20260901143027 82 279 0.9 0.0 0.00 0.00 0.00 78 1014.3
20260901141535 81 241 0.9 0.0 0.00 0.00 0.00 81 1014.5
20260901140025 79 266 0.9 0.0 0.00 0.00 0.00 83 1014.6
20260901134523 78 343 0.0 0.0 0.00 0.00 0.00 85 1014.5
20260901133020 77 244 0.0 0.0 0.00 0.00 0.00 86 1014.2
20260901131524 76 221 0.0 0.0 0.00 0.00 0.00 87 1014.2
20260901130017 76 307 0.0 0.0 0.00 0.00 0.00 88 1013.9
20260901124515 75 186 0.0 0.0 0.00 0.00 0.00 87 1013.7
20260901123019 75 186 0.0 0.0 0.00 0.00 0.00 87 1013.7
20260901121512 76 186 0.0 0.0 0.00 0.00 0.00 86 1013.4
20260901120028 76 186 0.0 0.0 0.00 0.00 0.00 85 1013.3
20260901114515 76 186 0.0 0.0 0.00 0.00 0.00 85 1013.4
20260901113008 77 186 0.0 0.0 0.00 0.00 0.00 84 1013.4
20260901111506 77 186 0.0 0.0 0.00 0.00 0.00 84 1013.3
20260901110004 77 276 0.0 0.0 0.00 0.00 0.00 83 1013.3
20260901104502 78 186 0.0 0.0 0.00 0.00 0.00 83 1013.2
20260901103003 78 201 0.0 0.0 0.00 0.00 0.00 82 1013.1
20260901101600 78 189 0.0 0.0 0.00 0.00 0.00 82 1013.0
20260901094559 78 203 0.0 0.0 0.00 0.00 0.00 82 1013.1
20260901093104 79 211 0.0 0.0 0.00 0.00 0.00 81 1013.4
20260901091608 79 114 0.0 0.0 0.00 0.00 0.00 80 1013.4
20260901090056 79 168 0.0 0.0 0.00 0.00 0.00 79 1013.2
20260901084558 80 191 0.0 0.0 0.00 0.00 0.00 79 1013.1
20260901083052 80 193 0.0 0.0 0.00 0.00 0.00 78 1013.1
20260901081550 80 149 0.9 0.0 0.00 0.00 0.00 77 1013.0
20260901080049 80 154 0.0 0.0 0.00 0.00 0.00 76 1013.2
20260901074547 81 191 0.0 0.0 0.00 0.00 0.00 75 1013.3
20260901073045 81 127 0.0 0.0 0.00 0.00 0.00 73 1013.2
20260901071556 82 199 0.9 0.0 0.00 0.00 0.00 71 1013.2
20260901070042 82 145 0.9 0.0 0.00 0.00 0.00 70 1013.3
20260901064542 82 210 0.9 0.0 0.00 0.00 0.00 70 1013.1
20260901063040 83 162 0.9 0.0 0.00 0.00 0.00 69 1013.0
20260901061536 83 144 0.9 0.0 0.00 0.00 0.00 68 1013.0
20260901060034 83 138 1.7 0.0 0.00 0.00 0.00 69 1013.0
20260901054532 83 209 0.9 0.0 0.00 0.00 0.00 69 1012.8
20260901053029 84 120 0.9 0.0 0.00 0.00 0.00 68 1012.7
20260901051528 84 198 0.9 0.0 0.00 0.00 0.00 66 1012.6
20260901050027 84 135 0.9 0.0 0.00 0.00 0.00 65 1012.5
20260901044525 85 146 1.7 0.0 0.00 0.00 0.00 63 1012.5
20260901043025 85 153 0.9 0.0 0.00 0.00 0.00 63 1012.5
20260901041525 86 168 0.9 0.0 0.00 0.00 0.00 62 1012.3
20260901040024 86 195 1.7 0.0 0.00 0.00 0.00 61 1012.3
20260901034531 87 139 1.7 0.0 0.00 0.00 0.00 59 1012.3
20260901033023 87 178 2.6 0.0 0.00 0.00 0.00 57 1012.2
20260901031523 88 184 2.6 0.0 0.00 0.00 0.00 54 1012.0
20260901030026 88 133 1.7 0.0 0.00 0.00 0.00 53 1011.8
20260901024522 88 138 0.9 0.0 0.00 0.00 0.00 49 1011.6
20260901023031 88 129 0.0 0.0 0.00 0.00 0.00 48 1011.4
20260901021524 88 70 0.0 0.0 0.00 0.00 0.00 47 1011.3
20260901020020 89 139 0.0 0.0 0.00 0.00 0.00 47 1011.0
20260901014519 90 151 0.0 0.0 0.00 0.00 0.00 47 1010.8
20260901013021 91 156 0.0 0.0 0.00 0.00 0.00 45 1010.7
20260901011518 91 156 0.0 0.0 0.00 0.00 0.00 44 1010.6
20260901010018 92 68 0.9 0.0 0.00 0.00 0.00 42 1010.4
20260901004517 93 137 0.9 0.0 0.00 0.00 0.00 42 1010.4